Location: *
(49.9853°N, 3.5569°E)
Time: 14:09:53
(UTC+00:00)

Cosmos 405 Rocket - Pass Details

Date: 16 December 2019
Orbit: 490 x 555 km, 81.3° (Epoch: 17 January)

Event Time Altitude Azimuth Distance (km) Brightness Sun altitude
Rises 06:40:39 0° 170° (S) 2,615 6.8 -8.7°
Reaches altitude 10° 06:42:53 10° 162° (SSE) 1,723 6.0 -8.4°
Maximum altitude 06:46:22 37° 95° (E) 805 4.4 -7.9°
Drops below altitude 10° 06:49:50 10° 27° (NNE) 1,710 5.3 -7.4°
Sets 06:52:02 0° 19° (NNE) 2,592 6.2 -7.1°
